Flight Track Log - Related Links

Times and Time Zones

All times are in EDT time to prevent confusion due to time zone crossing. See the LOF5035 flight status page for this flight to view local times or setup timezone preferences in your user account.

Time Position Orientation Groundspeed Altitude Reporting Facility
EDT Latitude Longitude Course Direction KTS MPH feet Rate Location/Type
Sun 09:33:54 AM 42.8403 -85.5069 107° East 173 199 3,100  Level Chicago Center
Sun 09:34:55 AM 42.7975 -85.4603 141° Southeast 234 269 4,900 2,341 Climbing Chicago Center
Sun 09:35:57 AM 42.7769 -85.3578 105° East 278 320 7,900 2,732 Climbing Chicago Center
Sun 09:36:58 AM 42.7544 -85.2508 106° East 290 334 10,500 2,213 Climbing Chicago Center
Sun 09:37:59 AM 42.7317 -85.1342 105° East 310 357 12,400 1,869 Climbing Chicago Center
Sun 09:39:00 AM 42.7115 -84.8329 107° East  Level FlightAware Approximate
Sun 09:39:00 AM 42.7053 -85.0064 106° East 341 392 14,300  Level Chicago Center
Sun 09:40:01 AM 42.6794 -84.8756 105° East 356 410 16,000 1,756 Climbing Chicago Center
Sun 09:41:03 AM 42.6456 -84.7111 106° East 373 429 17,900 1,512 Climbing Chicago Center
Sun 09:42:04 AM 42.6164 -84.5697 106° East 385 443 19,100 541 Climbing Chicago Center
Sun 09:43:05 AM 42.5844 -84.4156 106° East 420 483 19,000 -63 Descending Chicago Center
Sun 09:43:39 AM 42.5658 -84.3358 108° East 408 470 19,000  Level Cleveland Center
Sun 09:44:39 AM 42.5331 -84.1844 106° East 408 470 19,000  Level Cleveland Center
Sun 09:45:39 AM 42.5022 -84.0361 106° East 408 470 19,000  Level Cleveland Center
Sun 09:46:39 AM 42.4692 -83.8822 106° East 408 470 19,000  Level Cleveland Center
Sun 09:47:39 AM 42.4275 -83.7311 110° East 420 483 19,000 50 Level Cleveland Center
Sun 09:48:39 AM 42.3750 -83.5936 117° Southeast 420 483 19,100  Climbing Cleveland Center
Sun 09:49:39 AM 42.3222 -83.4506 116° Southeast 414 476 19,000 -50 Descending Cleveland Center
Sun 09:50:39 AM 42.2714 -83.3136 117° Southeast 408 470 19,000 -250 Level Cleveland Center
Sun 09:51:39 AM 42.2125 -83.1594 117° Southeast 416 479 18,500 -1,000 Descending Cleveland Center
Sun 09:52:39 AM 42.1633 -83.0231 116° Southeast 411 473 17,000 -1,450 Descending Cleveland Center
Sun 09:53:39 AM 42.1097 -82.8867 118° Southeast 411 473 15,600 -1,450 Descending Cleveland Center
Sun 09:54:39 AM 42.0603 -82.7561 117° Southeast 406 467 14,100 -800 Descending Cleveland Center
Sun 09:55:39 AM 42.0106 -82.6233 117° Southeast 401 461 14,000 -150 Descending Cleveland Center
Sun 09:56:39 AM 41.9608 -82.4903 117° Southeast 396 456 13,800 -1,250 Descending Cleveland Center
Sun 09:57:39 AM 41.9106 -82.3633 118° Southeast 396 456 11,500 -1,900 Descending Cleveland Center
Sun 09:58:39 AM 41.8625 -82.2447 119° Southeast 382 440 10,000 -750 Descending Cleveland Center
Sun 09:59:39 AM 41.8014 -82.1431 129° Southeast 365 420 10,000  Level Cleveland Center
Sun 10:00:11 AM 41.7581 -82.1031 145° Southeast 352 405 10,000  Level Cleveland Center
Sun 10:01:12 AM 41.6758 -82.0231 144° Southeast 352 405 10,000 -414 Level Cleveland Center
Sun 10:02:07 AM 41.6222 -81.9692 143° Southeast 287 330 9,200 -1,034 Descending Cleveland Center
Sun 10:02:39 AM 41.5892 -81.9353 143° Southeast 307 353 8,500 -1,500 Descending Cleveland Center
Sun 10:03:39 AM 41.5122 -81.9336 179° South 267 307 6,900 -1,550 Descending Cleveland Center
Sun 10:04:39 AM 41.4392 -81.9319 179° South 267 307 5,400 -950 Descending Cleveland Center
Sun 10:05:39 AM 41.3925 -82.0003 228° Southwest 248 285 5,000 -267 Descending Cleveland Center
Sun 10:06:09 AM 41.3711 -82.0358 231° Southwest 232 267 5,000 -200 Level Cleveland Center
Sun 10:06:39 AM 41.3583 -82.0631 238° Southwest 225 259 4,800 -590 Descending Cleveland Center
Sun 10:07:10 AM 41.3453 -82.1044 247° West 204 235 4,400 -565 Descending Cleveland Center
Sun 10:08:04 AM 41.3072 -82.1367 212° Southwest 195 224 4,000 -220 Descending Cleveland Center
Sun 10:08:59 AM 41.2725 -82.0944 138° Southeast 217 250 4,000 -110 Level Cleveland Center
Sun 10:09:53 AM 41.2939 -82.0422 61° Northeast 223 257 3,800 -694 Descending Cleveland Center
Sun 10:11:00 AM 41.3367 -81.9742 50° Northeast 204 235 2,600 -893 Descending Cleveland Center
Sun 10:11:54 AM 41.3600 -81.9386 49° Northeast 154 177 2,000 -678 Descending Cleveland Center
Sun 10:12:55 AM 41.3833 -81.9033 49° Northeast 124 143 1,300 -689 Descending Cleveland Center

Login

Don't have an account? Register now (free) for customized features, flight alerts, and more!